Location: Buch
(49.7331°N, 12.1098°E)
Time: 00:27:14
(UTC+00:00)

Cosmos 1656 Rocket - Pass Details

Date: 12 May 2021
Orbit: 794 x 848 km, 71.1° (Epoch: 18 June)

Event Time Altitude Azimuth Distance (km) Brightness Sun altitude
Exits shadow 22:14:20 34° 124° (SE) 1,311 4.3 -20.9°
Maximum altitude 22:15:05 36° 107° (ESE) 1,276 4.4 -20.9°
Drops below altitude 10° 22:20:04 10° 43° (NE) 2,420 6.5 -21.1°
Sets 22:22:41 0° 35° (NE) 3,366 7.5 -21.2°
